Terminal Aerodrome Forecast
Issued by NWS Miami, FL

Home | Current Version | Previous Version | Text Only | Print | Product List | Glossary On
Versions: 1 2 3 4 5 6 7 8 9 10 11 12 13 14 15 16 17 18 19 20 21 22 23 24 25 26 27 28 29 30 31 32 33 34 35 36 37 38 39 40 41 42 43 44 45
000
FTUS42 KMFL 070101 AAA
TAFAPF
TAF AMD
KAPF 070101Z 0701/0724 35008KT P6SM VCSH SCT007 BKN040 OVC070
      TEMPO 0701/0705 4SM RA SCT007 BKN015
     FM070600 32013G23KT P6SM BKN025
     FM071300 33015G25KT P6SM SCT035 BKN120
     FM071600 32017G27KT P6SM SKC=

USA.gov is the U.S. government's official web portal to all federal, state and local government web resources and services.